Estación de Galvarino

Ultimos registro cada 15 minutos 33
Estación Fecha / Hora Temperatura Humedad Lluvia Velocidad Dirección Radiación Presion
33 Galvarino 04-05-2026 08:00 9,2 99,8 0 0,5 174 0,6 990,5
32 Galvarino 04-05-2026 07:45 9,1 99,8 0 0 175 3,1 990,3
31 Galvarino 04-05-2026 07:30 9,1 99,7 0 0 174 0,6 990,4
30 Galvarino 04-05-2026 07:15 9,1 99,7 0 0 173 0,6 990,4
29 Galvarino 04-05-2026 07:00 9,1 99,7 0 0,5 173 0,6 990,4
28 Galvarino 04-05-2026 06:45 9,1 99,7 0 0 175 0,6 990,5
27 Galvarino 04-05-2026 06:30 9,2 99,6 0 0,5 174 0,6 990,5
26 Galvarino 04-05-2026 06:15 9,1 99,6 0 0,5 173 0,6 990,3
25 Galvarino 04-05-2026 06:00 9,1 99,4 0 0,5 170 0,6 990,3
24 Galvarino 04-05-2026 05:45 9,1 99,4 0 1,5 171 0,6 990,4
23 Galvarino 04-05-2026 05:30 9,1 99,2 0 1 168 0,6 990,6
22 Galvarino 04-05-2026 05:15 9,2 99,2 0 1,5 168 0,6 990,6
21 Galvarino 04-05-2026 05:00 9,2 99,2 0 1,5 170 0,6 990,4
20 Galvarino 04-05-2026 04:45 9,1 99,1 0 0,5 168 0,6 990,4
19 Galvarino 04-05-2026 04:30 9,1 99 0 0,5 167 0,6 990,4
18 Galvarino 04-05-2026 04:15 9,2 98,9 0 0 160 0,6 990,5
17 Galvarino 04-05-2026 04:00 9,1 98,8 0 0 150 0,6 990,5
16 Galvarino 04-05-2026 03:45 9,1 98,7 0 0 138 0,6 990,3
15 Galvarino 04-05-2026 03:30 9,1 98,7 0 0 149 0,6 990,6
14 Galvarino 04-05-2026 03:15 8,9 98,6 0 0 129 0,6 990,9
13 Galvarino 04-05-2026 03:00 9 98,5 0 0 143 0,6 990,9
12 Galvarino 04-05-2026 02:45 9 98,6 0 0 146 0,6 991,2
11 Galvarino 04-05-2026 02:30 9 98,5 0 0,5 139 0,6 991,3
10 Galvarino 04-05-2026 02:15 9 98,3 0 0,5 160 0,6 991,4
9 Galvarino 04-05-2026 02:00 9 98,3 0 0 161 0,6 991,4
8 Galvarino 04-05-2026 01:45 9 98,2 0 0 168 0,6 991,4
7 Galvarino 04-05-2026 01:30 8,9 98,1 0 0 156 0,6 991,5
6 Galvarino 04-05-2026 01:15 8,9 98 0 0 160 0,6 991,7
5 Galvarino 04-05-2026 01:00 8,9 98,1 0 0 156 0,6 991,9
4 Galvarino 04-05-2026 00:45 8,9 98,1 0 0 145 0,6 992,4
3 Galvarino 04-05-2026 00:30 8,9 98,2 0 0 147 0,6 992,5
2 Galvarino 04-05-2026 00:15 8,8 98,2 0 0 161 0,6 992,4
1 Galvarino 04-05-2026 00:00 8,8 98,1 0 0 156 0,6 992,5